This is the latest recevied weather packets stored in our database for station/object KD5FHA. If no packets are shown the sender has not sent any weather packets the latest 10 day(s).
| Time | Temp. | Humidity | Pressure | Rain* | Wind** | Luminosity | Snow |
|---|---|---|---|---|---|---|---|
| 1777751071 | 25° C | 35% | 1021 hPa | 0 mm | - | 887 W/m² | - |
| 1777750767 | 25° C | 36% | 1021.3 hPa | 0 mm | - | 889 W/m² | - |
| 1777750465 | 25° C | 35% | 1021.4 hPa | 0 mm | - | 901 W/m² | - |
| 1777750160 | 25.56° C | 35% | 1021.3 hPa | 0 mm | - | 888 W/m² | - |
| 1777749857 | 25.56° C | 34% | 1021.3 hPa | 0 mm | - | 894 W/m² | - |
| 1777749554 | 24.44° C | 35% | 1021.5 hPa | 0 mm | - | 908 W/m² | - |
| 1777749252 | 24.44° C | 36% | 1021.5 hPa | 0 mm | - | 916 W/m² | - |
| 1777748949 | 24.44° C | 35% | 1021.4 hPa | 0 mm | - | 922 W/m² | - |
| 1777748647 | 23.89° C | 35% | 1021.6 hPa | 0 mm | - | 917 W/m² | - |
| 1777748343 | 24.44° C | 34% | 1021.6 hPa | 0 mm | - | 922 W/m² | - |
| 1777748038 | 25° C | 35% | 1021.7 hPa | 0 mm | - | 926 W/m² | - |
| 1777747735 | 23.89° C | 38% | 1021.8 hPa | 0 mm | - | 931 W/m² | - |
| 1777747430 | 23.89° C | 36% | 1021.7 hPa | 0 mm | - | 931 W/m² | - |
| 1777747128 | 23.89° C | 35% | 1021.9 hPa | 0 mm | - | 934 W/m² | - |
| 1777746823 | 23.89° C | 36% | 1021.8 hPa | 0 mm | - | 931 W/m² | - |
| 1777746519 | 24.44° C | 34% | 1022.1 hPa | 0 mm | - | 932 W/m² | - |
| 1777746215 | 23.89° C | 36% | 1021.9 hPa | 0 mm | - | 929 W/m² | - |
| 1777745911 | 24.44° C | 36% | 1022.1 hPa | 0 mm | - | 926 W/m² | - |
| 1777745610 | 23.89° C | 36% | 1022.3 hPa | 0 mm | - | 922 W/m² | - |
| 1777745308 | 22.78° C | 37% | 1022.4 hPa | 0 mm | - | 922 W/m² | - |
| 1777745005 | 22.78° C | 35% | 1022.4 hPa | 0 mm | - | 924 W/m² | - |
| 1777744700 | 23.89° C | 37% | 1022.4 hPa | 0 mm | - | 916 W/m² | - |
| 1777744395 | 23.89° C | 36% | 1022.5 hPa | 0 mm | - | 914 W/m² | - |
| 1777744092 | 23.33° C | 39% | 1022.5 hPa | 0 mm | - | 914 W/m² | - |
| 1777743789 | 23.33° C | 37% | 1022.6 hPa | 0 mm | - | 905 W/m² | - |
* Rain latest hour (hover to see other rain measurements)
** Current wind speed in m/s (hover to see current wind gust speed)